Regional Weather Roundup
Issued by NWS State College, PA

Home | Current Version | Previous Version | Text Only | Print | Product List | Glossary Off
Versions: 1 2 3 4 5 6 7 8 9 10 11 12 13 14 15 16 17 18 19 20 21 22 23 24 25 26 27 28 29 30 31 32 33 34 35 36 37 38 39 40 41 42 43 44 45 46 47 48 49 50

000
ASUS41 KCTP 060610
RWRCTP

REGIONAL WEATHER ROUNDUP
NATIONAL WEATHER SERVICE STATE COLLEGE PA
200 AM EDT FRI MAY 06 2016

Note: "fair" indicates few or no clouds below 12,000 feet with no
significant weather and/or obstructions to visibility.

* = STATION THAT DOES NOT REPORT PRECIPITATION /E.G. RAIN...SNOW...ETC/
    THUNDER OR FOG.

PAZ002>004-007>009-013>016-020>023-029>032-060700-
WESTERN PENNSYLVANIA

CITY           SKY/WX    TMP DP  RH WIND       PRES   REMARKS
ERIE           CLOUDY    47  43  86 SW3       29.84S
MEADVILLE      CLEAR     43  41  93 N6        29.82S
FRANKLIN*      CLOUDY    46  41  81 N7        29.83R
NEW CASTLE     FAIR      48  43  82 N7        29.83R
BEAVER COUNTY  NOT AVBL
BUTLER*        CLOUDY    48  41  76 N5        29.81S
PITTSBURGH INT CLEAR     50  42  74 N14       29.78R
PITTSBURGH     PTCLDY    50  43  77 N10       29.76R
INDIANA*       CLOUDY    52  41  66 N5        29.78S
LATROBE        CLOUDY    52  45  76 N8        29.76S
WASHINGTON CO* CLEAR     48  43  81 N3        29.79
$$

PAZ004>006-010>012-017>019-024>028-033>037-041-042-045-046-049>053-060700-
CENTRAL PENNSYLVANIA

CITY           SKY/WX    TMP DP  RH WIND       PRES   REMARKS
BRADFORD       CLOUDY    48  38  68 N9        29.78S
DUBOIS         CLOUDY    49  39  68 N5        29.75S
CLEARFIELD     CLOUDY    51  39  63 N7        29.75S
JOHNSTOWN      LGT RAIN  49  39  68 N8        29.73S
ALTOONA        LGT RAIN  49  45  86 N3        29.73R
STATE COLLEGE  CLOUDY    51  43  74 N6        29.72S
WILLIAMSPORT   CLOUDY    54  46  74 NW3       29.70F
SELINSGROVE    CLOUDY    52  46  80 N6        29.70S
FT INDIANTOWN  CLOUDY    52  49  89 N2        29.67F
CAPITAL CITY   CLOUDY    56  45  66 E3        29.68S
HARRISBURG     CLOUDY    53  48  83 CALM      29.68S
YORK           CLOUDY    51  49  92 CALM      29.67F
$$

PAZ038>040-043-044-047-048-054-055-060>062-067>071-060700-
EASTERN PENNSYLVANIA

CITY           SKY/WX    TMP DP  RH WIND       PRES   REMARKS
SCRANTON       CLOUDY    53  44  71 NE7       29.69S
MOUNT POCONO   CLOUDY    46  41  82 N7        29.67F
ALLENTOWN      CLOUDY    54  45  71 CALM      29.68R
QUAKERTOWN*    CLOUDY    54  46  76 NE3       29.68S
READING        CLOUDY    54  45  71 CALM      29.67S
LANCASTER      CLOUDY    52  47  83 N7        29.67S
COATESVILLE    MOCLDY    54  50  87 MISG      29.67F
POTTSTOWN      CLOUDY    53  45  74 NE7       29.67F
BLUE BELL      CLOUDY    50  46  87 CALM      29.67S
DOYLESTOWN     CLOUDY    51  47  86 NE3       29.66S
WILLOW GROVE   NOT AVBL
NORTH PHILA    CLOUDY    54  47  77 NE9       29.68F
PHILADELPHIA   CLOUDY    55  45  68 E7        29.68R
$$



USA.gov is the U.S. government's official web portal to all federal, state and local government web resources and services.